カタログに戻る

STARLINK-6178

運用中通信VLEO
NORAD 56387·PAYLOAD·🇺🇸 United States

打ち上げ May 4, 2023 から Cape Canaveral Space Force Station

Loading…

次のパス (今後24時間)

TLE

最新Source: CelesTrak SupGP

元期: Sep 15, 2026, 02:07 UTC

1 56387C 23061P   26258.08868056 -.00017300  00000+0 -62678-3 0  2587
2 56387  43.0018 208.0591 0001892 279.8533 248.5206 15.27577123    17

AllMySatでSTARLINK-6178をリアルタイム追跡

Download on the App Store